Regional Weather Roundup
Issued by NWS

Home | Current Version | Previous Version | Text Only | Print | Product List | Glossary Off
Versions: 1 2 3 4 5 6 7 8 9 10 11 12 13 14 15 16 17 18 19 20 21 22 23 24 25 26 27 28 29 30 31 32 33 34 35 36 37 38 39 40 41 42 43 44 45 46 47 48 49 50

000
ASUS43 KDMX 230507
RWRIA

WEATHER ROUNDUP FOR IOWA
NATIONAL WEATHER SERVICE DES MOINES IA
1200 AM CDT TUE SEP 23 2014

NOTE: "FAIR" INDICATES FEW OR NO CLOUDS BELOW 12,000 FEET WITH NO
SIGNIFICANT WEATHER AND/OR OBSTRUCTIONS TO VISIBILITY.

* - THESE STATIONS ARE NOT NWS STATIONS...THUS NOT UNDER NWS
QUALITY CONTROL.  THEY ALSO DO NOT REPORT WEATHER SUCH
AS PRECIPITATION OR FOG.

IAZ001>003-012>014-020>022-031>034-043>046-230600-
   NORTHWEST IOWA

CITY           SKY/WX    TMP DP  RH WIND       PRES   REMARKS
CARROLL *      PTCLDY    52  50  93 CALM      30.20F
CHEROKEE *     MOCLDY    54  52  94 S5        30.18F
DENISON *      CLEAR     57  50  77 SE6       30.18S
LE MARS *      CLEAR     55  52  88 CALM      30.17F
ORANGE CITY *  CLEAR     57  48  72 SE3       30.17F
SHELDON *      CLEAR     55  50  82 S7        30.16F
SIOUX CITY     PTCLDY    55  51  86 SE6       30.17S
SPENCER        PTCLDY    51  47  86 S6        30.18F
STORM LAKE *   CLEAR     54  52  94 S8        30.20S
$$

IAZ055>058-069>071-079>083-090>094-230600-
   SOUTHWEST IOWA

CITY           SKY/WX    TMP DP  RH WIND       PRES   REMARKS
ATLANTIC *     PTCLDY    57  52  82 CALM      30.21S
AUDUBON *      CLEAR     50  45  81 CALM      30.22S
CLARINDA *     CLEAR     54  52  94 CALM      30.23S
COUNCIL BLFS * CLEAR     59  52  77 S9        30.18F
CRESTON *      CLEAR     55  52  88 S7        30.23S
HARLAN  *      CLEAR     54  52  94 CALM      30.23F
LAMONI         MOCLDY    57  51  80 S6        30.23S
RED OAK *      PTCLDY    57  54  88 CALM      30.21F
SHENANDOAH *   CLEAR     57  52  82 SE9       30.21F
$$

IAZ047>049-059>061-072>074-084-230600-
   CENTRAL IOWA

CITY           SKY/WX    TMP DP  RH WIND       PRES   REMARKS
AMES           PTCLDY    52  49  89 CALM      30.22S
ANKENY *       CLEAR     54  52  94 CALM      30.22S
CHARITON *     CLEAR     54  52  94 SE6       30.24S
DES MOINES     PTCLDY    59  51  75 S7        30.22S
GRINNELL*      PTCLDY    54  48  82 SE5       30.25R
KNOXVILLE *    CLEAR     55  50  82 S6        30.22S
MARSHALLTOWN   PTCLDY    49  47  93 SE6       30.23R
PELLA *        PTCLDY    55  50  82 S3        30.24F
PERRY *          N/A     52  50  93 S6        30.21F
$$

IAZ004>006-015-016-023>025-035-036-230600-
   NORTH CENTRAL IOWA

CITY           SKY/WX    TMP DP  RH WIND       PRES   REMARKS
ALGONA *       CLEAR     52  48  87 S7        30.21R
CLARION *        N/A     52  50  93 S6        30.21S
ESTHERVILLE    CLEAR     50  46  86 S8        30.19S
FORT DODGE *   PTCLDY    55  48  76 S5        30.21S
MASON CITY     CLEAR     48  46  93 S6        30.23S
FOREST CITY *  CLEAR     46  46 100 CALM      30.21S
IOWA FALLS *     N/A     52  48  87 CALM      30.24R
$$

IAZ007>011-017>019-026>030-037>042-050>054-066-230600-
   NORTHEAST IOWA

CITY           SKY/WX    TMP DP  RH WIND       PRES   REMARKS
CEDAR RAPIDS   CLEAR     51  49  92 S3        30.24S
CHARLES CITY * CLEAR     54  48  82 S6        30.23S
CLINTON *      CLEAR     48  43  81 CALM      30.28S
DECORAH *      PTCLDY    54  48  82 CALM      30.23R
DUBUQUE        CLEAR     50  45  83 S3        30.25F
MONTICELLO *   CLEAR     45  45 100 CALM      30.24S
OELWEIN *      CLEAR     50  46  87 S6        30.24S
WATERLOO       CLEAR     51  46  83 S3        30.22S
$$

IAZ064-065-067-068-078-230600-
   EAST CENTRAL IOWA

CITY           SKY/WX    TMP DP  RH WIND       PRES   REMARKS
DAVENPORT      CLEAR     51  44  77 SE3       30.26S
IOWA CITY      CLEAR     50  48  93 CALM      30.26F
MT. PLEASANT * CLEAR     50  46  87 CALM      30.25S
MUSCATINE *    CLEAR     50  46  87 CALM      30.26S
QUAD CITIES    CLEAR     48  46  93 CALM      30.26S
$$

IAZ062-063-075>077-085>089-095>099-230600-
   SOUTHEAST IOWA

CITY           SKY/WX    TMP DP  RH WIND       PRES   REMARKS
BURLINGTON     CLEAR     51  48  89 CALM      30.25F
FAIRFIELD *    CLEAR     50  46  87 CALM      30.25S
FORT MADISON * CLEAR     52  48  87 SE5       30.25F
KEOKUK *       CLEAR     54  52  94 E5        30.24F
OSKALOOSA *      N/A     52  48  87 S6        30.25R
CENTERVILLE *    N/A     48  48 100 SE3       30.25F
OTTUMWA        MOCLDY    53  50  89 S5        30.24S
WASHINGTON *   CLEAR     50  48  93 S3        30.25S
$$

ABBREVIATIONS USED IN REMARKS
   TC - TEMPERATURES IN CELSIUS
  WCI - WIND CHILL INDEX
   HX - HEAT INDEX
  VSB - VISIBILITY
$$



USA.gov is the U.S. government's official web portal to all federal, state and local government web resources and services.